Wind_Speed
10 10 10 10 11 11 9 9 9 9 8 9 8 8 8 8 7 6 5 5 5 6 7 7 7 8 8 9 9 10 11 12 12 12 12 12 11 11 11 10 10 9 9 9 8 8 8 8 7
9 9 9 9 11 9 7 7 8 8 8 8 8 7 7 7 6 6 5 4 5 5 6 7 7 8 9 9 9 10 11 11 11 11 11 11 11 10 10 10 9 9 8 8 8 7 7 7 7
8 8 8 8 9 6 6 6 7 7 7 8 8 7 7 7 5 4 4 4 4 5 5 6 7 8 8 9 9 10 10 10 11 11 11 10 10 9 9 9 9 8 7 7 7 7 7 7 7
6 6 7 7 6 5 6 6 6 6 7 7 7 7 7 6 6 4 3 4 4 5 5 6 7 8 9 9 9 9 10 10 10 10 10 10 9 9 8 8 8 7 7 6 6 6 6 6 6
4 5 6 5 4 4 5 6 6 7 7 7 7 7 7 6 5 5 3 3 3 4 5 6 7 9 9 9 9 9 10 10 10 10 9 9 8 8 7 7 7 6 6 6 5 5 5 6 6
3 4 4 3 3 4 5 5 6 7 7 7 7 7 7 7 6 5 4 3 3 4 4 5 7 8 9 9 10 9 9 10 10 9 9 8 8 7 7 7 6 6 6 5 5 5 5 5 5
2 3 2 2 3 3 4 4 5 6 6 5 5 6 7 7 6 5 4 3 2 2 3 5 7 8 9 9 9 9 9 10 9 9 8 8 8 7 6 6 6 5 5 5 4 4 5 5 5
4 3 2 3 3 3 3 3 4 5 5 4 4 5 6 7 6 5 4 2 1 1 2 4 6 8 9 9 9 9 10 10 10 9 8 8 7 7 6 6 5 5 5 4 4 4 5 5 5
6 4 4 4 3 3 2 3 3 5 4 4 3 4 5 6 6 5 4 2 0 1 2 4 6 7 8 9 10 9 10 10 10 9 8 7 6 6 5 6 5 5 4 4 4 4 4 5 5
7 6 6 6 5 4 3 3 3 4 4 4 4 4 4 5 5 5 4 3 1 1 2 4 6 7 8 9 10 10 10 10 10 9 8 7 6 6 5 6 5 5 4 4 4 4 4 4 4
10 9 9 8 7 5 4 3 3 5 5 5 5 4 3 4 4 4 4 4 3 3 3 4 5 7 8 9 10 10 10 10 10 10 9 7 7 6 5 5 5 5 4 4 4 4 4 4 3
12 11 11 10 9 7 6 4 4 5 5 6 6 5 5 5 5 4 4 5 4 3 3 4 6 7 8 9 10 10 10 10 11 10 9 8 8 7 6 5 5 5 4 3 3 4 4 4 4
13 13 13 12 11 9 8 6 5 6 6 6 6 6 5 5 5 5 4 5 5 4 4 4 6 7 8 9 11 11 11 10 11 11 10 9 9 8 7 6 5 5 5 4 3 4 4 3 4
15 15 15 14 13 11 10 8 7 7 7 7 7 7 6 6 6 6 6 6 7 6 6 4 6 6 8 9 10 12 12 12 11 12 11 11 10 9 8 8 7 6 6 4 4 4 4 3 3
16 16 17 17 15 13 12 10 9 9 8 8 8 8 8 7 7 7 7 7 8 8 7 7 6 7 8 9 11 12 13 14 13 12 12 12 11 10 9 9 8 8 7 6 5 4 4 4 3
18 18 18 18 16 14 13 12 12 11 10 9 9 9 10 9 9 8 8 8 8 8 8 8 8 8 9 10 11 12 13 14 14 14 13 12 11 11 11 10 10 9 8 7 6 5 5 4 4
19 19 19 20 17 16 14 13 14 12 11 10 10 10 10 10 10 10 9 9 8 8 8 8 9 10 10 11 12 12 14 15 15 15 14 13 12 11 12 12 11 10 9 8 7 6 5 5 4
20 19 20 21 19 17 16 15 14 13 12 11 11 11 10 11 12 12 11 10 9 8 8 9 9 10 10 12 12 14 15 15 16 16 16 15 13 13 12 13 12 11 10 10 8 7 6 6 6
22 21 21 22 20 18 17 16 15 14 12 12 12 12 12 13 14 13 11 11 10 9 8 9 10 11 11 11 13 14 15 16 17 17 16 16 14 14 14 14 13 13 12 11 10 9 8 7 7
23 22 22 23 21 19 18 17 15 13 13 13 14 14 14 15 14 14 13 13 12 11 11 11 12 13 13 13 14 14 15 16 16 17 17 17 16 15 15 15 15 14 13 12 11 10 10 9 8
24 23 23 23 21 19 18 17 16 14 13 13 14 14 15 15 15 15 14 14 13 13 13 14 14 13 14 14 15 16 15 16 16 17 17 18 17 16 16 17 16 15 15 13 12 11 11 11 10
24 24 24 23 20 20 18 16 16 14 14 14 15 15 16 16 16 15 15 15 14 14 15 15 14 13 14 15 16 16 15 16 18 18 18 18 17 17 17 18 18 17 16 15 14 13 12 12 12
26 25 24 22 21 20 18 16 16 15 14 14 14 15 16 16 16 16 16 15 15 15 15 14 14 14 15 15 16 16 17 17 18 19 19 18 18 18 18 18 19 18 18 17 16 15 14 13 13
27 25 24 22 21 20 19 16 16 16 15 15 15 15 15 15 15 15 14 15 15 15 15 15 15 15 16 17 16 16 17 17 19 20 21 20 19 19 19 19 20 20 19 19 18 18 16 15 14
27 25 23 22 22 19 20 17 17 17 16 16 16 15 15 15 15 14 15 15 15 15 15 15 16 16 17 17 17 16 17 17 19 20 21 21 20 20 20 19 20 20 20 20 20 19 18 17 16
25 24 22 19 18 18 20 18 18 16 16 16 15 15 15 15 14 15 15 15 14 15 15 15 17 17 16 15 15 15 17 17 18 19 21 22 22 21 20 21 21 21 21 20 20 21 20 19 18
26 25 23 21 19 17 18 18 17 15 15 15 15 15 15 15 14 14 14 14 14 15 15 15 16 16 15 14 14 15 17 18 19 20 21 22 22 22 21 21 22 23 22 22 21 21 21 20 19
27 25 25 22 19 16 16 17 16 15 15 15 15 15 14 14 14 14 14 14 14 13 14 15 15 15 14 14 15 14 16 18 19 20 20 21 22 22 22 22 21 22 22 22 22 21 21 21 21
26 26 25 22 20 16 13 14 15 15 15 15 14 13 13 14 14 14 13 13 12 13 13 14 15 15 14 15 15 14 15 16 17 18 19 21 22 22 22 21 21 21 21 22 22 22 22 22 22
26 25 24 23 22 20 15 15 16 15 14 14 13 12 12 12 12 12 12 12 12 12 12 13 13 13 14 15 16 16 15 16 17 17 18 20 20 20 21 21 21 21 22 22 22 22 22 22 23
Wind_Direction
60 64 63 63 61 60 53 45 49 52 57 61 67 72 74 76 84 94 101 110 119 130 134 135 141 147 147 146 144 140 133 125 121 117 113 110 105 101 101 100 100 101 101 100 99 98 100 102 100
55 60 61 59 64 63 44 41 44 47 50 55 62 69 72 73 80 88 97 112 124 132 137 137 143 151 154 155 150 145 138 130 124 120 116 113 109 106 105 102 101 102 102 102 100 101 102 104 104
53 56 57 55 63 67 45 42 43 45 45 49 56 64 68 68 71 74 91 110 129 139 142 143 150 157 161 160 157 152 146 138 131 126 123 118 114 110 108 105 104 104 104 104 102 103 104 107 110
46 50 52 52 50 49 47 40 36 44 44 45 50 59 65 64 61 62 82 109 130 144 146 149 158 166 168 166 161 158 153 146 139 132 128 124 119 116 112 109 108 108 107 106 105 108 110 113 116
35 40 49 47 35 35 36 33 28 35 37 40 47 57 60 58 58 58 71 104 125 142 149 158 163 169 172 172 167 165 159 154 147 140 134 129 126 123 120 115 111 113 112 110 109 114 117 122 123
12 23 44 34 12 20 26 27 23 32 33 36 45 52 54 55 57 56 63 84 120 144 156 168 172 173 175 174 172 171 167 162 156 149 142 137 132 129 126 121 119 118 116 114 113 119 123 129 133
331 358 18 3 349 359 11 18 17 18 19 25 38 45 47 49 50 50 50 65 106 153 169 177 180 182 181 180 176 176 175 170 163 155 151 147 142 139 132 131 129 126 119 117 118 127 132 135 139
296 314 325 330 330 327 353 2 1 4 7 12 24 40 43 44 44 43 44 49 94 182 190 189 187 188 189 189 186 184 182 178 172 164 158 156 153 148 142 139 139 135 128 122 122 127 130 137 141
279 286 287 293 298 306 328 339 346 352 351 357 8 23 36 37 36 29 30 32 15 209 214 199 194 193 196 197 196 194 189 184 180 173 168 165 162 156 150 149 148 145 138 132 126 133 137 137 140
271 271 268 276 286 299 311 314 320 331 333 337 344 1 21 26 21 16 11 12 353 260 230 209 204 201 202 203 202 200 196 192 189 184 179 175 172 168 160 159 156 152 148 141 134 133 133 138 145
267 265 269 275 281 287 288 297 304 315 316 311 318 332 355 14 9 9 5 1 345 298 255 224 215 210 209 205 205 205 205 201 195 193 191 188 184 180 172 171 168 166 162 155 149 146 144 146 153
263 265 268 270 275 276 276 284 289 292 292 294 302 315 324 343 345 345 353 350 338 309 276 241 227 221 217 213 212 212 212 209 203 198 198 199 197 191 184 178 179 177 178 173 166 167 163 163 165
259 262 265 268 271 270 269 270 274 275 282 289 290 299 305 318 325 321 322 329 322 303 284 250 236 230 223 220 220 219 218 215 211 207 207 207 206 203 200 193 188 182 184 187 185 181 176 174 175
256 259 262 265 268 268 268 266 264 266 273 278 282 284 287 298 306 311 313 311 305 297 286 263 245 235 228 228 227 226 223 220 217 214 214 213 211 209 204 203 199 195 192 188 184 181 180 174 176
253 256 259 263 266 267 266 265 262 263 266 271 272 273 276 284 292 295 300 304 297 290 284 270 263 248 241 237 234 233 231 226 223 219 216 217 217 214 210 209 206 204 200 196 192 190 188 184 186
249 252 256 260 263 264 263 263 263 262 264 265 266 269 271 273 279 284 290 288 288 285 281 270 268 260 251 244 238 234 233 230 227 223 221 222 224 220 216 215 210 206 203 199 195 195 196 201 199
247 249 251 257 259 260 259 256 261 260 260 259 263 268 270 271 273 281 285 283 283 284 281 274 270 265 255 246 240 236 237 232 229 228 227 228 228 225 222 218 213 210 207 204 202 203 203 204 205
243 245 248 255 256 256 256 255 259 258 259 258 261 265 268 269 269 276 278 278 279 280 278 275 271 263 256 249 242 240 239 234 231 230 230 231 232 231 227 219 217 215 213 211 209 211 208 207 208
238 241 245 250 253 253 253 255 258 258 260 261 262 262 264 267 265 271 276 274 272 273 281 279 270 265 262 255 250 245 239 235 231 231 233 233 233 234 229 222 220 219 217 214 213 214 215 216 218
236 238 243 249 251 250 252 254 256 257 258 259 261 260 261 263 266 268 270 275 270 270 279 280 270 264 263 258 251 247 243 237 235 235 235 234 233 234 228 224 221 220 219 220 220 222 222 225 228
235 236 240 246 249 250 252 254 256 256 255 257 258 258 260 262 266 268 270 273 271 273 279 279 268 268 263 260 257 249 245 239 237 236 235 233 232 232 228 224 222 222 223 224 226 227 229 233 234
233 234 238 243 245 249 247 249 257 252 252 256 257 257 259 261 264 267 270 272 271 274 279 281 271 272 269 264 260 252 246 240 237 236 234 229 227 228 226 225 224 223 225 227 230 231 233 237 239
230 233 236 241 242 245 246 240 252 251 251 256 257 258 258 258 261 266 268 272 270 273 277 277 273 273 270 266 263 253 248 243 239 238 235 230 227 226 226 228 229 228 228 231 234 235 237 238 238
230 232 235 239 240 242 244 241 247 251 254 257 260 257 254 255 258 264 268 270 269 272 272 270 269 269 269 267 263 254 249 248 244 241 237 233 229 227 227 230 231 232 233 235 237 239 240 240 241
228 230 232 234 236 240 244 242 244 252 254 257 259 255 255 258 258 263 269 268 268 270 271 268 269 271 271 267 262 256 250 251 245 241 238 235 233 231 231 231 233 234 235 237 240 240 242 242 242
226 226 225 229 234 238 244 242 248 252 255 256 257 256 257 260 260 262 266 266 266 266 267 268 269 272 271 264 258 254 249 248 244 243 243 240 237 235 235 236 235 235 238 239 242 242 242 242 242
222 221 221 223 223 228 243 245 248 249 252 254 256 257 258 258 261 262 265 267 266 265 265 266 267 269 267 260 256 255 252 248 247 246 246 240 238 237 239 240 240 240 240 241 245 244 243 242 243
220 220 220 219 221 225 241 246 247 248 251 254 257 258 258 255 258 263 264 263 263 265 265 263 267 270 265 259 259 256 250 248 246 246 244 238 236 235 237 239 240 240 239 242 243 242 243 244 244
220 219 220 220 220 220 235 245 243 246 248 252 256 254 254 255 257 258 258 260 262 266 268 264 267 266 264 259 254 253 250 246 245 247 243 239 238 237 236 237 238 241 241 241 241 241 244 244 244
219 220 221 221 224 218 220 242 244 245 247 250 248 248 251 252 254 255 256 259 265 271 273 269 266 265 265 258 253 251 248 247 248 247 243 241 238 237 236 237 239 241 241 241 241 242 242 243 244
Height
5900 5900 5900 5900 5901 5902 5901 5900 5899 5898 5896 5895 5894 5893 5893 5893 5893 5895 5893 5891 5892 5892 5892 5892 5893 5894 5895 5896 5896 5897 5897 5897 5898 5898 5898 5898 5899 5899 5899 5900 5900 5900 5901 5901 5901 5901 5901 5902 5902
5900 5900 5901 5902 5903 5904 5903 5901 5900 5898 5897 5896 5894 5893 5893 5893 5892 5892 5892 5892 5892 5892 5892 5893 5894 5895 5895 5896 5897 5897 5898 5898 5898 5899 5899 5899 5900 5900 5901 5901 5901 5901 5902 5902 5902 5902 5902 5903 5903
5901 5901 5902 5902 5903 5904 5903 5902 5900 5899 5898 5896 5895 5894 5894 5893 5893 5892 5892 5892 5892 5892 5893 5893 5894 5895 5896 5896 5897 5898 5898 5898 5899 5899 5900 5900 5901 5901 5901 5902 5902 5902 5903 5903 5903 5903 5903 5904 5904
5901 5902 5903 5903 5903 5903 5903 5901 5900 5899 5898 5897 5896 5895 5894 5893 5893 5893 5892 5892 5892 5892 5892 5893 5894 5895 5896 5897 5897 5898 5899 5899 5900 5900 5900 5901 5901 5902 5902 5902 5903 5903 5903 5904 5904 5904 5904 5904 5905
5901 5902 5903 5903 5903 5903 5902 5901 5900 5899 5898 5897 5896 5895 5894 5893 5893 5892 5892 5892 5892 5892 5892 5893 5894 5895 5896 5897 5898 5898 5899 5900 5900 5901 5901 5902 5902 5903 5903 5903 5903 5904 5904 5904 5904 5904 5905 5905 5905
5901 5902 5903 5904 5903 5902 5902 5901 5900 5900 5899 5897 5896 5895 5894 5893 5893 5892 5892 5892 5892 5892 5892 5893 5894 5895 5896 5897 5898 5898 5899 5900 5900 5901 5902 5902 5903 5903 5903 5903 5904 5904 5904 5904 5905 5905 5905 5906 5906
5900 5901 5902 5903 5902 5902 5902 5901 5900 5900 5899 5898 5896 5895 5894 5893 5893 5892 5892 5892 5892 5892 5892 5893 5894 5895 5896 5897 5897 5898 5899 5899 5900 5901 5902 5902 5903 5903 5903 5904 5904 5904 5905 5905 5905 5905 5906 5906 5906
5898 5900 5900 5901 5901 5901 5901 5900 5900 5899 5899 5898 5897 5896 5894 5894 5893 5892 5892 5892 5892 5892 5892 5893 5893 5894 5895 5896 5897 5898 5899 5899 5900 5901 5902 5902 5903 5903 5903 5904 5904 5905 5905 5905 5906 5906 5906 5906 5907
5896 5899 5899 5900 5900 5900 5900 5899 5899 5899 5898 5897 5896 5896 5895 5893 5893 5892 5892 5892 5891 5892 5892 5892 5893 5894 5894 5896 5896 5897 5898 5899 5900 5901 5901 5902 5903 5903 5903 5904 5904 5905 5905 5905 5906 5906 5906 5907 5907
5895 5897 5897 5897 5898 5898 5898 5898 5898 5898 5897 5897 5896 5895 5894 5893 5893 5892 5892 5891 5891 5891 5891 5892 5892 5893 5894 5895 5896 5897 5898 5898 5899 5900 5901 5902 5902 5903 5903 5904 5904 5905 5905 5905 5906 5906 5906 5907 5907
5892 5894 5894 5894 5895 5896 5896 5897 5897 5897 5897 5896 5896 5895 5894 5893 5892 5892 5891 5891 5891 5891 5891 5891 5892 5892 5893 5894 5895 5896 5897 5897 5898 5900 5901 5901 5902 5903 5903 5904 5904 5904 5905 5905 5906 5906 5907 5907 5907
5890 5890 5891 5892 5893 5894 5894 5895 5896 5896 5896 5895 5895 5894 5894 5893 5892 5891 5891 5891 5891 5890 5890 5890 5891 5891 5892 5893 5894 5895 5896 5897 5898 5899 5900 5901 5902 5902 5903 5904 5904 5904 5905 5905 5906 5906 5907 5907 5907
5887 5888 5888 5889 5890 5891 5892 5893 5894 5894 5894 5894 5893 5893 5893 5892 5891 5891 5890 5890 5890 5890 5889 5889 5889 5890 5891 5892 5893 5894 5895 5896 5897 5898 5899 5900 5901 5901 5902 5903 5904 5904 5904 5905 5905 5906 5907 5907 5907
5884 5885 5885 5886 5887 5889 5890 5891 5892 5892 5892 5892 5892 5892 5891 5891 5890 5890 5889 5889 5889 5888 5888 5888 5888 5888 5889 5890 5891 5892 5893 5894 5895 5896 5897 5898 5900 5900 5901 5902 5903 5904 5904 5905 5905 5906 5906 5907 5907
5881 5882 5882 5883 5884 5886 5888 5889 5889 5890 5890 5890 5890 5890 5890 5889 5889 5888 5888 5887 5887 5887 5887 5887 5887 5887 5888 5889 5889 5890 5891 5892 5894 5895 5896 5897 5898 5899 5900 5901 5902 5903 5903 5904 5905 5905 5906 5907 5907
5877 5878 5879 5880 5881 5882 5886 5887 5886 5887 5887 5888 5888 5888 5888 5887 5887 5886 5885 5885 5885 5885 5885 5885 5885 5885 5886 5886 5887 5888 5889 5890 5892 5893 5895 5896 5897 5898 5899 5900 5901 5902 5902 5903 5904 5905 5906 5906 5907
5873 5875 5876 5876 5878 5879 5881 5883 5883 5884 5885 5885 5885 5885 5885 5885 5884 5884 5883 5883 5883 5883 5883 5883 5883 5883 5883 5884 5884 5885 5887 5888 5890 5891 5893 5894 5895 5896 5897 5898 5900 5900 5901 5902 5903 5904 5905 5905 5906
5869 5871 5872 5872 5874 5876 5877 5879 5879 5880 5881 5882 5883 5883 5883 5882 5882 5882 5881 5880 5880 5880 5880 5880 5880 5880 5880 5881 5882 5883 5884 5885 5887 5889 5890 5892 5893 5894 5895 5897 5898 5899 5900 5901 5902 5903 5904 5905 5905
5864 5867 5868 5868 5870 5872 5874 5875 5876 5877 5878 5879 5879 5880 5880 5880 5879 5879 5878 5878 5878 5878 5878 5878 5878 5878 5878 5878 5879 5879 5880 5882 5884 5885 5887 5889 5890 5892 5893 5895 5896 5897 5899 5900 5901 5902 5903 5903 5904
5859 5862 5863 5864 5866 5868 5870 5871 5872 5873 5874 5875 5876 5876 5877 5876 5876 5876 5876 5876 5875 5875 5875 5875 5874 5874 5875 5875 5876 5876 5877 5879 5881 5882 5884 5886 5887 5889 5890 5892 5894 5896 5897 5898 5899 5900 5901 5902 5903
5854 5857 5858 5860 5862 5864 5867 5868 5869 5870 5871 5872 5872 5873 5873 5873 5873 5873 5873 5873 5872 5872 5872 5871 5871 5871 5871 5871 5872 5873 5874 5876 5878 5879 5881 5882 5884 5886 5888 5889 5891 5893 5895 5896 5898 5899 5899 5900 5901
5849 5851 5853 5856 5858 5861 5863 5866 5865 5866 5867 5868 5869 5869 5869 5870 5870 5870 5870 5869 5869 5869 5868 5868 5867 5867 5867 5867 5868 5869 5871 5872 5874 5875 5877 5879 5881 5883 5884 5887 5888 5890 5892 5894 5895 5896 5897 5898 5899
5843 5846 5849 5851 5854 5857 5859 5862 5864 5862 5864 5865 5865 5865 5866 5866 5866 5866 5866 5866 5866 5865 5865 5864 5864 5864 5863 5863 5864 5865 5867 5868 5869 5871 5873 5875 5877 5879 5881 5883 5885 5887 5889 5891 5892 5894 5894 5895 5896
5837 5842 5844 5847 5850 5853 5855 5858 5860 5859 5860 5861 5861 5861 5862 5862 5862 5862 5862 5862 5862 5861 5861 5861 5860 5860 5860 5860 5860 5861 5863 5864 5865 5867 5870 5871 5873 5876 5878 5880 5882 5884 5886 5887 5889 5890 5891 5892 5894
5833 5838 5841 5843 5846 5849 5850 5853 5856 5855 5856 5856 5857 5857 5858 5859 5859 5859 5859 5858 5858 5857 5857 5857 5856 5856 5856 5855 5856 5857 5858 5859 5861 5863 5865 5867 5869 5871 5873 5876 5878 5880 5882 5884 5885 5886 5888 5889 5890
5828 5834 5839 5842 5844 5846 5845 5848 5850 5851 5851 5852 5853 5854 5854 5855 5855 5855 5854 5854 5854 5853 5853 5852 5852 5852 5851 5851 5852 5853 5854 5855 5857 5859 5860 5862 5864 5867 5869 5871 5873 5875 5877 5879 5881 5883 5884 5885 5886
5823 5827 5833 5837 5840 5843 5843 5844 5845 5846 5847 5848 5849 5850 5850 5850 5850 5850 5850 5850 5850 5849 5849 5848 5848 5848 5848 5848 5848 5849 5850 5851 5853 5854 5856 5857 5860 5862 5865 5867 5869 5871 5873 5875 5877 5878 5880 5881 5882
5819 5823 5827 5831 5835 5839 5840 5840 5842 5842 5843 5844 5844 5845 5846 5846 5846 5846 5846 5846 5846 5845 5844 5844 5844 5844 5844 5844 5844 5845 5846 5847 5848 5850 5851 5853 5855 5858 5860 5862 5864 5865 5868 5870 5872 5874 5876 5877 5878
5814 5818 5822 5827 5831 5836 5838 5840 5838 5838 5839 5840 5840 5841 5842 5842 5842 5842 5842 5842 5842 5841 5841 5840 5840 5840 5840 5840 5840 5841 5842 5843 5844 5846 5847 5849 5851 5853 5855 5857 5859 5861 5863 5865 5867 5869 5871 5872 5873
5809 5814 5818 5823 5826 5829 5834 5838 5833 5834 5835 5836 5837 5837 5838 5838 5838 5838 5838 5838 5838 5838 5837 5836 5836 5836 5836 5836 5837 5837 5838 5839 5840 5841 5843 5844 5846 5848 5850 5852 5854 5856 5858 5860 5862 5864 5865 5867 5868